Theta_e
331 329 328 324 315 316 312 314 321 319 321 324 325 325 328 330 328 323 355 350 350 358 362 362 364 365 365 367 365 364 363 362 362 362 362 362 363 363 363 363 363 361 358 354 353 354 354 353 353
324 324 324 321 312 309 312 318 317 321 323 324 326 327 329 330 344 341 347 350 353 358 362 361 363 365 365 366 365 364 363 363 363 363 363 363 363 363 361 361 360 358 355 352 351 353 353 353 352
322 323 317 316 313 309 313 318 320 322 322 324 325 332 333 337 345 347 352 352 356 358 360 363 363 364 365 365 365 364 364 363 363 363 363 362 362 362 362 360 358 356 354 351 352 353 353 352 350
320 319 318 312 310 316 318 320 322 321 322 325 327 327 340 346 344 349 352 352 354 355 359 360 363 363 363 364 364 364 364 363 363 363 362 362 361 360 360 358 357 356 353 351 352 353 353 352 351
319 318 312 311 312 316 321 322 322 321 321 322 327 325 337 348 351 351 350 351 351 353 360 359 362 362 363 362 363 363 363 362 363 363 362 361 360 359 359 358 357 355 353 351 352 352 353 352 352
313 315 308 308 313 317 320 323 322 321 321 322 323 327 338 351 349 351 350 350 352 353 360 357 361 362 361 362 362 361 361 361 361 361 361 361 360 359 357 357 356 354 352 351 351 351 351 351 351
310 311 308 310 313 315 317 323 320 321 321 321 326 324 341 347 350 352 351 351 352 354 356 356 354 360 361 361 360 360 359 359 360 360 360 360 359 358 357 356 354 353 352 351 350 349 348 348 347
313 312 309 310 310 312 318 319 322 318 318 323 327 326 335 348 353 353 352 351 351 352 355 355 354 352 353 355 360 359 358 358 358 359 359 359 358 357 356 357 355 352 352 350 349 348 347 347 347
315 306 305 307 311 314 318 315 321 320 316 319 328 334 348 353 353 351 350 349 349 349 353 353 351 351 351 350 354 358 357 357 358 357 358 355 349 353 354 353 356 355 351 350 351 351 350 350 349
310 304 308 310 313 313 316 315 316 314 316 317 324 339 348 351 350 346 346 345 346 347 350 351 351 352 351 349 355 352 351 351 351 349 353 350 348 352 348 353 356 353 352 353 353 352 351 347 336
312 308 311 310 312 312 314 315 315 313 314 318 318 329 341 345 346 344 343 344 345 348 349 351 354 356 352 349 354 350 350 350 350 350 356 353 346 347 346 348 350 349 351 345 347 345 343 339 339
309 313 314 311 310 309 310 316 314 314 316 319 318 320 333 341 342 341 340 342 345 347 350 352 355 357 359 352 351 353 350 352 351 352 358 358 349 354 351 344 345 353 347 350 347 345 348 345 344
310 313 314 315 315 312 314 313 312 314 318 319 319 319 320 339 340 341 341 343 346 347 351 353 358 362 362 363 354 354 354 352 354 355 358 356 354 358 353 354 349 349 348 347 347 346 347 347 348
313 315 315 317 315 315 312 313 313 314 320 318 319 318 320 324 338 342 343 344 346 350 352 355 357 364 363 364 367 358 358 358 354 355 356 360 359 363 355 356 354 353 352 351 351 351 352 353 353
315 311 313 314 315 314 313 310 310 315 316 315 317 318 319 321 326 335 341 344 343 343 348 354 358 361 365 364 363 362 358 357 355 355 362 360 364 365 365 353 354 352 355 356 355 354 356 352 351
309 311 306 312 314 313 311 305 314 317 315 315 317 318 318 320 322 325 329 331 335 336 341 347 347 353 365 367 364 362 360 359 358 356 357 360 361 361 363 357 356 357 359 354 353 352 351 350 349
306 302 303 304 308 309 309 308 312 315 312 313 316 318 318 318 320 323 323 324 327 332 337 341 348 345 356 368 363 366 369 361 359 360 357 360 360 359 358 355 353 363 357 355 353 352 354 351 350
298 301 303 301 303 305 306 308 310 313 312 311 313 316 316 317 318 322 323 325 326 329 338 345 347 360 359 356 364 358 357 358 358 358 357 359 359 358 358 356 360 361 355 352 352 362 354 356 351
303 301 299 302 305 302 300 301 306 309 310 310 312 315 319 320 320 321 323 326 328 331 335 342 345 362 356 349 349 352 350 354 355 358 363 360 359 358 363 356 362 361 359 359 357 354 356 349 349
302 300 299 302 304 303 301 299 303 306 308 310 310 313 315 315 319 323 325 326 327 330 334 340 343 356 359 351 356 351 351 350 353 357 362 360 358 360 362 364 361 363 350 358 356 357 349 345 345
302 300 300 299 303 304 301 298 300 305 309 311 311 315 317 318 319 324 326 329 328 329 333 337 340 350 359 361 356 356 356 356 353 354 354 357 358 360 360 360 359 360 357 348 358 354 350 341 341
298 303 302 301 300 295 301 290 299 302 304 307 311 314 316 318 321 324 326 330 331 332 331 330 339 344 349 358 356 365 351 346 348 352 352 356 360 359 358 360 359 361 353 354 347 346 348 349 339
300 305 302 302 300 299 298 293 297 304 301 305 308 313 317 319 321 323 327 330 333 337 337 338 338 344 350 352 356 352 354 348 348 349 364 364 361 358 357 356 353 350 345 350 346 345 348 341 337
306 302 302 302 300 293 297 296 295 300 304 306 310 313 315 317 320 322 327 329 332 337 341 342 344 345 345 347 350 353 353 353 350 353 352 353 349 348 346 343 345 346 346 341 342 345 344 344 341
303 300 293 292 292 292 301 298 299 306 306 311 312 314 315 316 317 318 321 324 328 331 333 336 339 340 342 344 345 346 350 350 351 347 346 347 340 339 348 345 347 340 345 341 345 345 343 340 335
301 301 295 289 290 293 301 295 301 310 312 313 314 315 317 317 319 319 320 321 322 324 327 327 329 330 332 333 334 336 338 335 337 340 336 333 332 333 348 344 341 341 338 342 344 333 331 338 335
301 298 304 298 300 296 297 303 308 310 310 312 313 315 315 316 317 319 321 321 323 324 326 326 327 328 328 329 331 333 334 335 334 338 339 330 342 331 334 335 339 340 338 339 343 333 336 338 338
305 306 298 299 291 289 295 297 298 305 307 310 311 312 314 315 316 317 320 321 324 323 324 325 324 324 325 325 326 326 327 327 328 331 332 333 334 335 335 335 337 337 338 340 342 335 336 338 332
301 302 302 302 298 292 291 295 309 307 310 310 311 313 314 314 315 317 319 319 320 322 321 321 321 321 321 322 322 323 323 324 325 325 326 327 329 329 329 330 331 332 335 338 339 338 337 335 335
307 301 303 297 295 299 298 297 310 311 312 313 312 313 314 314 315 316 316 317 317 318 317 319 319 318 319 319 319 320 320 321 322 323 324 325 324 325 324 324 324 325 327 333 334 333 332 332 331
Wind_Speed
16 15 12 8 9 10 17 20 4 4 9 4 3 7 11 11 14 4 7 8 18 20 19 18 15 13 12 11 12 13 14 13 13 13 13 12 11 10 10 10 9 9 8 7 7 7 6 6 6
14 13 9 9 10 15 14 15 8 13 5 3 4 4 5 16 17 11 9 13 18 18 17 18 16 15 13 12 12 12 14 14 14 14 13 12 10 10 10 9 8 7 6 6 6 6 6 5 5
16 13 11 11 14 17 15 20 10 7 4 10 4 6 5 12 12 11 19 17 19 17 17 17 16 16 14 14 13 13 13 14 15 14 13 11 10 9 9 9 8 7 6 6 6 6 5 4 3
9 9 11 12 20 22 26 9 2 6 8 6 7 5 10 10 7 13 18 19 18 18 18 18 16 16 15 14 14 14 14 13 14 14 13 11 10 9 9 8 7 6 6 5 5 5 4 4 3
10 10 12 17 22 23 10 11 7 12 7 10 9 7 12 8 12 18 18 17 16 17 18 18 14 15 15 15 14 14 14 13 13 13 13 12 11 10 10 8 7 6 6 6 6 6 5 4 3
11 12 15 19 21 23 7 9 10 12 10 8 6 9 14 13 14 15 16 16 16 16 17 18 15 15 14 13 13 12 13 13 13 12 12 12 11 10 10 9 8 7 6 6 6 6 6 6 5
15 14 19 23 20 19 14 9 12 14 13 11 12 13 15 17 14 14 15 14 15 15 16 16 15 14 13 12 12 12 11 12 11 11 11 10 10 10 10 9 9 8 7 7 6 6 6 6 7
14 15 22 22 18 19 8 5 16 4 10 9 4 3 20 20 16 14 15 15 15 14 17 15 14 15 14 13 11 11 11 11 11 11 11 11 10 10 10 9 9 8 8 7 8 8 7 8 8
15 10 15 20 23 9 8 9 8 3 9 4 5 12 17 17 17 14 14 14 14 13 15 16 16 15 14 14 13 10 10 10 9 10 10 10 10 12 13 12 12 11 9 9 8 8 9 8 10
16 14 17 8 2 10 7 8 6 5 11 9 7 6 9 13 14 14 14 14 15 15 15 15 14 14 14 12 14 12 12 11 11 11 12 10 11 10 11 11 13 10 10 9 10 9 9 10 9
22 19 20 8 5 16 18 8 2 8 7 0 9 2 9 10 12 13 13 15 15 14 12 15 11 12 13 11 11 8 8 8 9 12 11 11 8 8 7 6 8 8 11 9 12 10 9 12 9
23 22 22 4 3 12 18 23 9 10 12 11 0 4 11 10 12 13 14 16 14 14 13 14 14 12 11 8 9 10 9 9 9 11 11 8 7 7 7 7 9 9 8 10 9 8 9 8 7
25 16 23 23 8 14 9 20 16 16 13 11 14 7 10 11 11 12 10 10 15 14 13 13 15 12 10 9 8 8 9 9 10 10 12 10 10 7 8 7 8 7 8 8 7 8 6 7 9
15 17 16 17 17 10 14 15 17 24 17 13 14 14 10 9 11 13 10 8 7 10 11 11 13 13 12 11 10 8 7 8 9 9 10 13 10 7 8 8 9 9 8 7 7 8 8 9 10
21 21 22 19 14 13 10 21 13 22 16 16 17 14 12 8 10 9 8 6 6 8 8 12 12 13 13 14 11 9 8 9 9 10 10 12 11 9 8 8 7 8 8 8 7 7 7 9 9
19 16 19 20 17 8 11 24 26 21 23 23 19 16 13 11 12 9 8 8 9 8 11 10 12 15 14 12 10 9 10 9 10 9 9 12 11 6 7 8 6 7 6 7 7 7 8 9 9
20 20 24 17 17 10 12 18 15 20 22 19 17 17 14 12 13 11 10 10 10 9 9 10 11 12 13 12 10 10 11 10 10 9 9 12 12 12 9 7 6 8 9 7 7 8 9 8 8
21 23 19 22 16 15 13 18 18 15 22 13 14 17 12 12 8 9 10 13 9 9 8 9 8 9 7 8 9 10 10 11 11 10 10 11 10 12 10 10 7 7 8 9 8 3 6 7 7
23 23 24 13 17 18 16 17 16 14 20 14 16 15 15 13 6 5 7 7 7 9 8 8 9 8 8 10 10 10 10 10 10 10 11 10 10 13 11 9 10 8 8 6 7 6 7 9 9
22 12 20 7 12 17 16 18 18 16 25 17 20 16 11 4 6 0 2 2 5 8 9 9 10 10 9 9 7 7 8 9 10 10 8 11 13 12 10 9 8 8 7 6 7 7 8 9 8
19 15 15 15 19 19 19 20 18 19 15 15 7 3 5 5 2 2 3 2 3 4 4 4 7 10 10 11 7 6 8 6 9 9 9 10 13 13 11 10 9 6 7 8 9 7 5 8 9
16 14 19 13 15 13 16 8 16 19 17 14 12 11 8 3 2 5 5 5 4 4 2 2 5 7 8 9 9 9 8 9 9 8 10 10 10 12 12 12 12 8 7 7 4 5 6 8 8
20 21 15 11 14 14 19 9 13 22 18 21 12 1 4 4 4 6 8 7 7 7 6 5 2 2 5 4 8 8 9 9 8 7 7 6 8 10 10 10 9 8 6 5 5 4 5 7 8
22 5 12 15 15 15 17 12 11 18 20 20 12 8 4 5 6 6 8 8 8 9 9 8 8 6 3 3 5 8 9 7 8 3 2 6 7 7 9 9 7 6 6 5 5 6 7 7 7
17 13 11 11 11 11 21 17 7 11 13 21 17 12 10 6 8 6 7 10 10 11 11 10 10 11 10 10 8 4 3 2 4 2 6 6 7 8 8 7 7 7 7 6 6 6 6 7 8
20 19 13 11 14 15 8 7 11 13 11 10 12 8 7 5 7 8 6 7 10 10 10 11 11 11 10 9 9 8 8 2 1 5 8 4 5 5 6 8 7 8 9 8 8 8 8 9 9
16 20 19 11 10 5 10 13 10 14 12 11 11 9 6 3 4 1 7 4 6 7 7 8 8 9 9 8 6 7 7 8 8 8 7 7 6 8 8 7 8 10 10 10 10 10 9 9 9
13 12 9 8 9 11 8 16 8 19 15 14 12 9 6 4 3 3 1 5 2 5 6 6 6 6 7 6 6 6 4 4 4 5 7 8 8 10 11 10 11 10 11 11 11 11 12 12 11
12 12 11 11 11 10 11 7 14 13 15 13 13 9 6 4 4 3 0 4 3 2 6 5 5 5 5 5 5 5 6 7 6 7 8 8 9 10 11 11 11 13 13 13 12 14 15 15 13
13 19 14 8 12 8 8 6 5 3 12 13 11 10 1 3 6 6 4 4 5 2 5 2 4 6 5 6 7 7 7 8 8 9 10 10 12 12 13 13 14 15 16 14 15 17 17 18 18
Wind_Direction
271 244 239 253 245 234 247 232 25 138 197 64 336 292 23 40 79 181 103 130 128 127 139 146 129 129 128 127 137 139 136 137 140 139 138 141 145 146 136 128 128 121 118 119 120 121 120 119 117
288 280 243 265 247 253 229 242 168 243 61 266 213 190 218 71 99 132 135 134 130 131 146 144 134 130 131 129 130 135 135 140 141 140 142 147 147 143 133 122 120 116 117 119 119 122 123 121 121
259 254 265 225 237 253 256 212 173 118 206 231 235 290 328 70 108 128 115 141 125 141 151 134 136 132 137 134 134 136 140 143 142 142 144 146 144 136 123 121 129 129 127 129 132 138 137 132 138
239 225 248 255 239 234 266 25 9 162 199 215 230 161 91 59 116 118 144 143 144 143 141 136 139 137 139 141 140 141 143 143 144 145 146 146 145 134 125 133 137 141 139 138 140 147 156 161 168
234 258 233 226 239 258 264 87 280 260 217 187 198 173 106 101 105 130 144 144 148 143 127 146 142 139 141 147 147 145 145 146 150 148 150 151 150 145 143 148 155 159 156 157 161 175 180 187 199
227 234 242 235 225 238 212 279 253 264 253 209 222 222 113 122 140 137 146 149 145 138 131 139 147 141 143 148 152 151 150 151 153 154 155 154 155 155 157 164 173 174 171 174 184 187 196 203 212
241 221 239 251 237 223 220 210 250 247 252 230 215 209 125 148 135 140 148 153 136 138 139 151 162 151 144 149 154 156 154 155 157 158 156 154 157 160 167 178 185 184 186 191 195 202 213 220 223
255 250 250 246 251 231 192 161 248 277 276 42 302 289 162 129 148 146 151 153 145 151 141 155 162 166 168 168 160 158 161 162 165 163 158 160 162 171 182 189 196 194 198 205 210 216 224 229 234
238 245 238 237 246 215 154 218 187 305 276 277 205 45 77 132 148 161 154 156 154 160 146 158 167 166 175 166 167 166 172 172 173 171 168 165 196 186 184 206 173 184 204 214 220 226 231 237 241
233 226 232 348 57 308 304 246 54 269 217 218 209 113 113 151 163 164 165 164 162 167 160 156 171 166 178 169 156 189 184 193 195 193 182 212 218 200 216 185 162 185 207 219 227 229 237 238 253
217 238 244 87 37 322 310 259 254 276 266 183 17 112 154 176 178 175 181 166 170 166 165 157 172 167 191 186 158 185 189 195 197 204 195 209 211 215 205 181 185 207 206 223 206 213 231 239 248
221 226 239 203 309 293 302 328 272 259 277 331 315 332 292 200 184 198 196 161 165 166 170 163 170 177 205 190 183 180 199 188 196 200 198 209 231 212 230 217 213 189 190 217 230 224 221 251 266
219 224 222 232 266 271 292 295 299 292 292 293 299 270 257 223 218 217 201 171 165 164 170 175 167 183 193 233 191 211 203 193 203 194 194 217 215 225 211 246 244 222 211 209 231 232 256 241 240
218 229 245 204 226 273 277 265 297 288 256 270 256 260 237 243 222 200 219 211 165 172 178 184 185 182 197 208 241 199 228 220 209 212 205 201 233 227 228 218 231 244 240 243 230 229 236 223 240
222 219 239 219 228 250 269 251 243 273 279 271 277 261 247 230 236 223 197 222 216 198 202 184 194 191 202 206 210 231 215 220 220 222 205 202 205 240 236 239 232 245 242 253 263 266 251 257 255
218 237 219 209 211 198 240 240 236 284 302 275 259 255 237 227 234 212 235 206 202 243 189 208 198 189 199 215 211 223 227 226 229 219 211 216 212 229 225 241 238 251 240 241 239 251 249 251 253
217 214 215 229 161 181 211 234 250 260 267 265 263 247 237 221 218 231 241 235 221 224 245 208 220 222 193 198 225 221 234 220 235 227 210 204 209 212 222 229 232 207 244 253 242 242 249 266 270
209 220 237 220 158 206 209 231 234 275 273 263 247 267 236 236 247 244 234 242 245 231 222 242 227 220 225 209 202 236 224 226 226 223 217 206 206 206 199 231 249 205 231 239 238 255 288 305 292
220 216 221 216 175 198 221 249 239 214 265 273 268 236 254 269 286 322 303 288 281 281 271 232 233 240 200 209 214 210 229 222 229 228 210 197 205 211 201 227 203 217 258 281 321 278 245 266 268
247 208 219 153 217 192 203 233 252 227 230 201 250 231 205 223 235 55 286 278 263 250 238 231 229 230 209 214 222 246 221 231 224 220 193 198 210 213 210 224 239 204 240 206 240 250 272 279 269
223 232 216 205 197 197 202 220 212 237 240 260 227 2 134 223 226 100 71 27 284 228 245 248 229 233 220 234 204 214 258 263 217 219 194 202 213 208 206 206 236 232 218 241 204 220 236 271 294
213 213 227 207 188 212 216 224 212 214 213 246 223 201 198 166 106 83 61 43 36 351 12 253 267 220 235 218 250 216 234 241 225 212 209 187 211 221 207 208 207 213 218 220 221 228 247 228 261
235 193 226 226 200 244 176 237 259 184 206 201 201 240 191 138 68 67 60 39 40 48 47 48 17 224 285 214 245 248 227 260 242 244 110 179 197 220 213 199 196 197 217 214 244 274 238 270 266
230 153 205 215 233 220 225 210 228 179 206 189 153 150 238 101 99 89 86 67 45 61 71 65 66 62 64 222 211 258 290 257 301 172 222 217 189 204 213 191 193 197 221 241 219 224 242 258 289
218 204 195 194 217 234 207 205 207 159 178 146 154 166 153 149 110 66 66 76 65 65 68 78 70 66 59 55 51 60 34 310 257 216 222 218 200 197 175 212 190 201 215 250 233 223 245 258 258
207 216 238 189 196 211 168 193 120 124 119 120 143 145 154 160 124 111 71 81 85 63 58 71 72 70 68 64 66 52 15 59 177 215 350 234 276 211 162 187 235 226 246 218 229 229 232 243 233
192 229 248 313 279 274 156 106 125 151 152 150 159 164 141 137 149 139 128 106 83 80 57 56 57 60 46 51 43 41 28 15 354 356 332 299 312 296 276 271 236 244 246 243 233 233 244 246 240
282 207 214 228 275 233 234 180 201 168 162 167 159 167 157 185 189 131 86 70 357 129 121 62 43 49 40 24 21 33 360 356 348 325 303 298 294 296 297 291 286 259 257 254 250 250 242 239 241
210 244 212 254 217 224 248 86 105 155 158 163 178 150 179 226 272 215 155 133 186 43 61 46 12 5 28 5 353 341 333 320 307 303 293 292 290 287 280 276 272 263 259 255 252 256 263 264 257
291 208 223 222 249 271 306 112 76 65 151 168 178 156 166 337 330 325 351 22 332 13 358 50 6 321 344 331 324 318 302 299 295 292 290 288 283 279 275 273 270 267 263 258 249 246 251 249 247